Regional Weather Roundup
Issued by NWS

Home | Current Version | Previous Version | Graphics & Text | Print | Product List | Glossary On
Versions: 1 2 3 4 5 6 7 8 9 10 11 12 13 14 15 16 17 18 19 20 21 22 23 24 25 26 27 28 29 30 31 32 33 34 35 36 37 38 39 40 41 42 43 44 45 46 47 48 49 50
000
ASUS45 KTFX 301719
RWRMT
MONTANA HOURLY WEATHER ROUNDUP
NATIONAL WEATHER SERVICE GREAT FALLS MT
1019 AM MST FRI JAN 30 2015

NOTE: "FAIR" INDICATES FEW OR NO CLOUDS BELOW 12000 FEET WITH NO
SIGNIFICANT WEATHER AND/OR OBSTRUCTIONS TO VISIBILITY.

* THESE STATIONS ARE NOT UNDER NWS QUALITY CONTROL. THEY DO NOT
   REPORT WEATHER SUCH AS PRECIPITATION OR FOG.

MTZ001>007-043-301800-
WEST OF THE DIVIDE
CITY           SKY/WX    TMP DP  RH WIND       PRES   REMARKS
KALISPELL      FOG       18  16  92 CALM      30.37S VSB 3
MISSOULA       FOG       21  19  92 CALM      30.37F VSB 3
BUTTE          PTCLDY    21  18  88 CALM      30.27S
MULLAN PASS    SUNNY     34  10  37 CALM      30.24R
* ANACONDA     PTCLDY    27  18  69 N/A        N/A
* ESSEX        N/A       15  13  92 N/A        N/A
* EUREKA APT   PTCLDY    27  25  92 CALM      30.40S
* HAMILTON APT PTCLDY    30  23  75 CALM      30.34R
* LIBBY APT    SUNNY     27  25  92 CALM      30.41R VSB 1
* LINCOLN      N/A       13   9  84 NE2        N/A
* LOOKOUT PASS N/A       24  22  92 SE3        N/A
* POLSON       N/A       25  24  96 NE1        N/A
* RONAN APT    PTCLDY    23  21  92 N/A        N/A
* SEELEY LAKE  N/A        4  -1  79 N/A        N/A
* THOMP F APT  SUNNY     28  14  56 N3G9       N/A
* YAAK HILL    N/A       29  27  92 N/A        N/A
$$

MTZ008-052>055-301800-
SOUTHWEST MONTANA
CITY           SKY/WX    TMP DP  RH WIND       PRES   REMARKS
BOZEMAN        PTCLDY    28  21  75 CALM      30.28S
DILLON         PTCLDY    27  18  69 SW6       30.26S WCI  20
* W YELLOWSTON PTSUNNY   10   6  84 N/A        N/A
* THREE FORKS  PTCLDY    27  27 100 N/A        N/A
* BOULDER HILL N/A       27  12  53 SW11       N/A   WCI  17
* MONIDA PASS  N/A        8   6  91 W4         N/A
* RAYNOLDS PAS N/A       17  14  88 NW2        N/A
* WHITEHALL    N/A       25  20  81 E1G6       N/A
* WISE RIVER   N/A       12   8  84 NW6        N/A   WCI   2
$$

MTZ009>010-012-014-046-048-049-054-301800-
EAST SLOPES AND CENTRAL MONTANA
CITY           SKY/WX    TMP DP  RH WIND       PRES   REMARKS
CUT BANK       SUNNY     36  19  50 NW5       30.20R WCI  32
GREAT FALLS    SUNNY     39  19  45 SW10      30.22R WCI  32
HELENA         SUNNY     27  21  78 CALM      30.28R
MALMSTROM AFB  SUNNY     34  23  64 N2        30.23R
* CONRAD       SUNNY     19  16  88 CALM       N/A
* DEARBORN     N/A       29  22  75 SW2G8      N/A
* EAST GLACIER N/A       32  14  47 W21G27     N/A   WCI  20
* MONARCH      N/A       28   9  45 S5         N/A   WCI  22
* PENDROY      N/A       45  11  25 N/A        N/A
* ROGERS PASS  N/A       24  17  75 S8G16      N/A   WCI  15
* SWEET GRASS  N/A       37  13  37 NW8        N/A   WCI  31
* WHITE SULPH  N/A       32  22  67 NE4        N/A
$$

MTZ011-013-016-021-035-040-045-047-050-051-301800-
NORTH CENTRAL MONTANA
CITY           SKY/WX    TMP DP  RH WIND       PRES   REMARKS
HAVRE          PTCLDY    30  27  89 SW7       30.23R WCI  23
LEWISTOWN      SUNNY     34  18  52 CALM      30.22R
* N BAR RANCH  SUNNY     45   7  21 NW5       30.21R
* CHINOOK      PTCLDY    28  23  81 CALM      30.25R
* CHESTER      N/A       28  20  72 N/A        N/A
* DENTON       N/A       35  20  54 SE1        N/A
* GEYSER       N/A       39  17  41 W7         N/A   WCI  34
* JUDITH GAP   N/A       38  14  37 N4         N/A
* LOMA         N/A       27  21  78 SW3        N/A
$$

MTZ017>020-022>027-061-062-301800-
NORTHEAST MONTANA
CITY           SKY/WX    TMP DP  RH WIND       PRES   REMARKS
GLASGOW        SUNNY     25  21  85 W6        30.24R WCI  18
GLENDIVE       SUNNY     34  27  76 SE3       30.23R
JORDAN         SUNNY     34  28  79 W8        30.23R WCI  27
SIDNEY         SUNNY     36  28  73 SE5       30.24R WCI  32
WOLF POINT     SUNNY     28  25  89 SW7       30.24R WCI  21
* BEAVER HILL  N/A       35  25  67 SW7        N/A   WCI  29
* CIRCLE       N/A       33  30  89 W4G10      N/A
* LINDSAY DVD  N/A       35  27  73 W14        N/A   WCI  26
* NAVAJO       N/A       31  27  85 NW18G24    N/A   WCI  19
* PLENTYWOOD A SUNNY     28  27  96 NW7       30.20R WCI  21
* POPLAR APT   SUNNY     27  25  92 N/A       30.24R
* SACO         N/A       24  22  92 W3         N/A
* SCOBEY APT   PTCLDY    28  21  75 SE5        N/A   WCI  22
$$

MTZ028>042-056>058-301800-
SOUTHCENTRAL AND SOUTHEAST MONTANA
CITY           SKY/WX    TMP DP  RH WIND       PRES   REMARKS
BAKER          SUNNY     37  27  67 W8        30.20S WCI  31
BILLINGS       PTSUNNY   36  25  64 SW16      30.22S WCI  26
LIVINGSTON     PTSUNNY   37  16  42 W14       30.23S WCI  28
MILES CITY     SUNNY     34  27  76 W6        30.23R WCI  29
* BIG TIMBER A PTSUNNY   36  18  48 W12       30.23S WCI  28
* FORSYTH APT  PTCLDY    34  28  79 W5        30.24R WCI  29
* LAUREL APT   CLOUDY    34  19  54 SW8        N/A   WCI  27
* ROUNDUP APT  PTCLDY    34  21  59 N/A        N/A
* ALZADA       N/A       36  25  64 SW7        N/A   WCI  30
* HYSHAM       N/A       34  26  73 W9         N/A   WCI  27
* LAME DEER    N/A       38  19  46 N7         N/A   WCI  33
* REED POINT   N/A       28  23  81 SW2G9      N/A
* ROSCOE HILL  N/A       36   4  26 VRB5       N/A   WCI  32
$$

REGIONAL REPORTS...DAKOTAS
CITY           SKY/WX    TMP DP  RH WIND       PRES   REMARKS
WILLISTON      SUNNY     32  27  82 VRB5      30.20R WCI  27
DICKINSON      SUNNY     39  27  62 NW12      30.15R WCI  32
BEACH          SUNNY     36  28  73 W10       30.20R WCI  29
CROSBY         FOG       27  27 100 NW17      30.20R VSB 1    WCI  14
TIOGA          SUNNY     30  30 100 W10       30.19R WCI  21
WATFORD CITY   SUNNY     32  27  82 W8        30.17R WCI  25
BISMARCK       SUNNY     30  23  75 SW7       30.19F WCI  23
GRAND FORKS    CLOUDY    18  10  71 S21G28    30.25F WCI   1
FARGO          CLOUDY    19  12  74 S17       30.32F WCI   4
BUFFALO SD     PTCLDY    37  27  67 W10       30.12R WCI  30
RAPID CITY     CLOUDY    37  25  62 NW7       30.18R WCI  32
$$

REGIONAL REPORTS...WYOMING/IDAHO/WASHINGTON
CITY           SKY/WX    TMP DP  RH WIND       PRES   REMARKS
GILLETTE       CLOUDY    36  28  73 CALM      30.20R
SHERIDAN       PTCLDY    32  21  64 CALM      30.22S
CODY           SUNNY     36  25  64 CALM      30.22R
YELLOWSTONE LA PTCLDY     3   3 100 CALM      30.25F
SALMON         CLOUDY    27  21  78 CALM      30.36S
MULLAN PASS    SUNNY     34  10  37 CALM      30.24S
SAND POINT     PTCLDY    28  28 100 CALM      30.39S
SPOKANE        FOG       30  28  92 SE5       30.37R VSB M1/4 WCI  25
$$

REGIONAL REPORTS...ALBERTA
CITY           SKY/WX    TMP DP  RH WIND       PRES   REMARKS
CALGARY        PTCLDY    28  18  66 N3        30.21R
LETHBRIDGE     PTSUNNY   30  21  69 SW5       30.20S WCI  25
MEDICINE HAT   FOG       21  19  92 CALM      30.25R VSB M1/4
EDMONTON       FOG       23  19  85 N8        30.26R WCI  14
WATERTON GATE  N/A       39  16  39 SW24G32    N/A   WCI  28
CARDSTON       N/A       32  23  69 SE3        N/A
MILK RIVER     N/A       30  21  69 N3         N/A
$$

REGIONAL REPORTS...SASKATCHEWAN
CITY           SKY/WX    TMP DP  RH WIND       PRES   REMARKS
SWIFT CURRENT  HVY SNOW  23  23 100 SW8       30.21R VSB M1/4 WCI  14
MOOSE JAW      FOG       25  23  92 NW15      30.23R WCI  13
REGINA         CLOUDY    19  18  96 NW12      30.20R WCI   6
VAL MARIE      N/A       23  23 100 NE2        N/A
ASSINIBOIA     N/A       25  23  92 W6         N/A   WCI  18
CORONACH       N/A       30  28  92 NW12       N/A   WCI  20

$$



USA.gov is the U.S. government's official web portal to all federal, state and local government web resources and services.